Flag for Azerbaijan Weather past 2 weeks in Ganja, Azerbaijan

Now
82 °F

Passing clouds.


Feels Like: 81 °F
Forecast: 71 / 95 °F
Wind: 7 mph from North

Location: Gyanca Airport

Current Time: Jul 24, 2014 at 12:27:49 PM

Latest Report: Jul 24, 2014 at 11:30 AM


Visibility: N/A

Pressure: 29.89 "Hg

Humidity: 32%

Dew point: 50 °F

Location of GanjaLocation

Historic Weather in Ganja — Graph

°F

Ganja temperature yesterday

Maximum temperature yesterday: 91 °F (at 5:00 PM)
Minimum temperature yesterday: 70 °F (at 7:00 AM)
Average temperature yesterday: 84 °F

Past Weeks' High & Low Weather Summary

 TemperatureHumidityPressure
High97 °F (Jul 18, 5:00 PM)83% (Jul 11, 5:00 AM)29.95 "Hg (Jul 11, 5:00 AM)
Low68 °F (Jul 11, 5:00 AM)11% (Jul 18, 5:00 PM)29.56 "Hg (Jul 19, 6:00 PM)
Average82 °F43%29.81 "Hg
* Reported Jul 9 10:00 AM — Jul 24 10:30 AM, Ganja, Weather by CustomWeather, © 2014

Note: Actual official high and low records may vary slightly from our data, if they occured in-between our weather recording intervals... More about our weather records

Advertising

Ganja weather history for previous 24 hours

 ConditionsComfort  
Time TempWeatherWind HumidityBarometerVisibility
10:30 AM
Jul 24
79 °FPassing clouds.8 mph37%29.89 "HgN/A
10:00 AM77 °FPassing clouds.8 mph39%29.89 "HgN/A
9:30 AM75 °FPassing clouds.7 mph44%29.89 "HgN/A
9:00 AM73 °FPassing clouds.8 mph50%29.89 "HgN/A
8:30 AM72 °FPassing clouds.8 mph53%29.89 "HgN/A
8:00 AM70 °FPassing clouds.10 mph57%29.89 "HgN/A
7:30 AM70 °FPassing clouds.8 mph53%29.89 "HgN/A
7:00 AM70 °FPassing clouds.9 mph53%29.89 "HgN/A
6:30 AM68 °FPassing clouds.7 mph53%29.89 "HgN/A
6:00 AM68 °FPassing clouds.6 mph56%29.89 "HgN/A
5:30 AM68 °FPassing clouds.5 mph53%29.89 "HgN/A
4:30 AM70 °FPassing clouds.8 mph53%29.89 "HgN/A
4:00 AM72 °FPassing clouds.9 mph50%29.89 "HgN/A
3:30 AM72 °FPassing clouds.7 mph47%29.89 "HgN/A
3:00 AM72 °FPassing clouds.8 mph47%29.89 "HgN/A
2:30 AM73 °FPassing clouds.9 mph44%29.89 "HgN/A
2:00 AM73 °FPassing clouds.12 mph44%29.89 "HgN/A
1:30 AM75 °FPassing clouds.9 mph39%29.89 "HgN/A
1:00 AM79 °FPassing clouds.8 mph34%29.89 "HgN/A
12:00 AM82 °FPassing clouds.6 mph28%29.89 "HgN/A
11:30 PM
Jul 23
84 °FPassing clouds.6 mph27%29.89 "HgN/A
11:00 PM84 °FPassing clouds.6 mph27%29.86 "HgN/A
10:30 PM84 °FPassing clouds.8 mph27%29.86 "HgN/A
10:00 PM84 °FPassing clouds.9 mph29%29.86 "HgN/A
9:30 PM86 °FPassing clouds.9 mph27%29.86 "HgN/A
9:00 PM86 °FPassing clouds.9 mph27%29.86 "HgN/A
8:30 PM88 °FPassing clouds.13 mph25%29.83 "HgN/A
8:00 PM90 °FPassing clouds.14 mph24%29.83 "HgN/A
7:30 PM90 °FPassing clouds.15 mph24%29.83 "HgN/A
7:00 PM91 °FPassing clouds.14 mph21%29.83 "HgN/A
6:30 PM91 °FPassing clouds.13 mph20%29.83 "HgN/A
6:00 PM91 °FPassing clouds.12 mph20%29.83 "HgN/A
5:30 PM91 °FPassing clouds.12 mph18%29.86 "HgN/A
5:00 PM91 °FPassing clouds.10 mph18%29.86 "HgN/A
4:00 PM90 °FPassing clouds.9 mph18%29.86 "HgN/A
3:00 PM90 °FPassing clouds.10 mph20%29.89 "HgN/A
2:30 PM90 °FPassing clouds.12 mph18%29.89 "HgN/A
2:00 PM90 °FPassing clouds.10 mph18%29.89 "HgN/A
1:00 PM88 °FPassing clouds.9 mph19%29.92 "HgN/A
Weather by CustomWeather, © 2014

See weather overviewHow to use our weather pages